カタログに戻る

HAWK-11A

運用中科学VLEO
NORAD 62382·PAYLOAD·🇺🇸 United States

打ち上げ Dec 21, 2024 から Vandenberg Space Force Base

Loading…

次のパス (今後24時間)

TLE

最新Source: Space-Track

元期: Sep 14, 2026, 10:29 UTC

1 62382U 24247F   26257.43725357  .00005205  00000-0  17845-3 0  9998
2 62382  44.9929 158.7220 0002644   0.5607 359.5280 15.31362209 96682

AllMySatでHAWK-11Aをリアルタイム追跡

Download on the App Store